Time,TemperatureF,DewpointF,PressureIn,WindDirection,WindDirectionDegrees,WindSpeedMPH,WindSpeedGustMPH,Humidity,HourlyPrecipIn,Conditions,Clouds,dailyrainin,SolarRadiationWatts/m^2,SoftwareType,DateUTC
2013-10-19 00:01:00,37.5,-99.9,29.77,WSW,252,0.0,0.0,94,0.05,,,0.00,0.02,,2013-10-19 05:01:00,
2013-10-19 00:11:00,37.5,-99.9,29.76,ENE,61,0.0,0.0,94,0.03,,,0.01,0,,2013-10-19 05:11:00,
2013-10-19 00:21:00,37.4,-99.9,29.77,North,349,2.0,5.4,95,0.01,,,0.01,0.014,,2013-10-19 05:21:00,
2013-10-19 00:31:00,37.3,-99.9,29.76,North,10,0.0,0.0,94,0.01,,,0.01,0.014,,2013-10-19 05:31:00,
2013-10-19 00:41:00,37.3,-99.9,29.75,SSW,208,0.0,0.0,94,0.01,,,0.01,0.034,,2013-10-19 05:41:00,
2013-10-19 00:51:00,37.3,-99.9,29.75,SSW,213,0.0,0.0,95,0.01,,,0.01,0.081,,2013-10-19 05:51:00,
2013-10-19 01:01:00,37.3,-99.9,29.76,West,279,1.0,2.1,96,0.02,,,0.02,0.024,,2013-10-19 06:01:00,
2013-10-19 01:11:00,37.2,-99.9,29.74,SW,230,2.0,3.8,96,0.03,,,0.04,0.017,,2013-10-19 06:11:00,
2013-10-19 01:21:00,37.2,-99.9,29.74,WSW,258,4.0,5.4,95,0.03,,,0.04,0.041,,2013-10-19 06:21:00,
2013-10-19 01:31:00,37.8,-99.9,29.74,SW,235,4.0,5.4,93,0.03,,,0.04,0.071,,2013-10-19 06:31:00,
2013-10-19 01:41:00,37.7,-99.9,29.73,SSW,199,0.0,2.1,94,0.03,,,0.04,0.041,,2013-10-19 06:41:00,
2013-10-19 01:51:00,37.5,-99.9,29.73,SW,229,4.0,5.4,95,0.03,,,0.04,0.061,,2013-10-19 06:51:00,
2013-10-19 02:01:00,37.0,-99.9,29.74,WSW,238,4.0,7.1,95,0.01,,,0.04,0.081,,2013-10-19 07:01:00,
2013-10-19 02:11:00,36.9,-99.9,29.73,WSW,241,3.0,5.4,95,0.00,,,0.04,0.034,,2013-10-19 07:11:00,
2013-10-19 02:21:00,36.8,-99.9,29.73,WSW,245,3.0,5.4,95,0.00,,,0.04,0.071,,2013-10-19 07:21:00,
2013-10-19 02:31:00,37.4,-99.9,29.73,West,260,4.0,5.4,95,0.00,,,0.04,0.051,,2013-10-19 07:31:00,
2013-10-19 02:41:00,39.0,-99.9,29.72,West,259,6.0,10.5,94,0.00,,,0.04,0.044,,2013-10-19 07:41:00,
2013-10-19 02:51:00,39.6,-99.9,29.73,WNW,283,6.0,8.8,92,0.00,,,0.04,0.061,,2013-10-19 07:51:00,
2013-10-19 03:01:00,39.3,-99.9,29.73,West,266,7.0,10.5,92,0.00,,,0.04,0.064,,2013-10-19 08:01:00,
2013-10-19 03:11:00,39.1,-99.9,29.73,NW,305,9.0,12.1,91,0.00,,,0.04,0.085,,2013-10-19 08:11:00,
2013-10-19 03:21:00,39.0,-99.9,29.73,NW,314,8.0,10.5,91,0.01,,,0.05,0.017,,2013-10-19 08:21:00,
2013-10-19 03:31:00,39.0,-99.9,29.72,WNW,302,5.0,8.8,92,0.01,,,0.05,0.024,,2013-10-19 08:31:00,
2013-10-19 03:41:00,38.7,-99.9,29.72,NW,309,3.0,5.4,92,0.01,,,0.05,0.115,,2013-10-19 08:41:00,
2013-10-19 03:51:00,38.3,-99.9,29.72,West,275,5.0,8.8,92,0.01,,,0.05,0.081,,2013-10-19 08:51:00,
2013-10-19 04:01:00,38.5,-99.9,29.72,WNW,292,6.0,8.8,92,0.01,,,0.05,0.041,,2013-10-19 09:01:00,
2013-10-19 04:11:00,38.4,-99.9,29.72,WNW,292,5.0,8.8,92,0.01,,,0.05,0.014,,2013-10-19 09:11:00,
2013-10-19 04:21:00,38.3,-99.9,29.72,West,277,6.0,10.5,92,0.00,,,0.05,0.024,,2013-10-19 09:21:00,
2013-10-19 04:31:00,38.3,-99.9,29.72,West,276,3.0,7.1,92,0.00,,,0.05,0.051,,2013-10-19 09:31:00,
2013-10-19 04:41:00,38.5,-99.9,29.73,NW,311,4.0,5.4,92,0.00,,,0.05,0.037,,2013-10-19 09:41:00,
2013-10-19 04:51:00,38.3,-99.9,29.73,North,351,4.0,7.1,92,0.00,,,0.05,0.037,,2013-10-19 09:51:00,
2013-10-19 05:01:00,37.8,-99.9,29.73,NNW,333,5.0,7.1,91,0.00,,,0.05,0.014,,2013-10-19 10:01:00,
2013-10-19 05:11:00,37.4,-99.9,29.74,NW,308,4.0,7.1,91,0.00,,,0.05,0.014,,2013-10-19 10:11:00,
2013-10-19 05:21:00,37.0,-99.9,29.74,NNW,341,5.0,8.8,90,0.00,,,0.05,0.034,,2013-10-19 10:21:00,
2013-10-19 05:31:00,36.3,-99.9,29.74,NNW,340,5.0,10.5,89,0.00,,,0.05,0.01,,2013-10-19 10:31:00,
2013-10-19 05:41:00,35.6,-99.9,29.74,NNW,341,6.0,8.8,90,0.00,,,0.05,0.027,,2013-10-19 10:41:00,
2013-10-19 05:51:00,35.0,-99.9,29.74,NNW,339,3.0,5.4,90,0.00,,,0.05,0.034,,2013-10-19 10:51:00,
2013-10-19 06:01:00,34.8,-99.9,29.75,NNE,16,3.0,7.1,90,0.00,,,0.05,0.017,,2013-10-19 11:01:00,
2013-10-19 06:11:00,34.7,-99.9,29.75,NNW,328,3.0,5.4,87,0.00,,,0.05,0.058,,2013-10-19 11:11:00,
2013-10-19 06:21:00,34.2,-99.9,29.75,NW,326,4.0,7.1,88,0.00,,,0.05,0.034,,2013-10-19 11:21:00,
2013-10-19 06:31:00,33.8,-99.9,29.75,NNW,337,4.0,5.4,89,0.00,,,0.05,0.105,,2013-10-19 11:31:00,
2013-10-19 06:41:00,33.4,-99.9,29.75,NNW,329,3.0,5.4,90,0.00,,,0.05,0.068,,2013-10-19 11:41:00,
2013-10-19 06:51:00,33.5,-99.9,29.75,NNW,332,3.0,5.4,88,0.00,,,0.05,0.037,,2013-10-19 11:51:00,
2013-10-19 07:01:00,33.4,-99.9,29.75,NW,322,3.0,3.8,89,0.00,,,0.05,0.058,,2013-10-19 12:01:00,
2013-10-19 07:11:00,33.5,-99.9,29.75,WNW,301,2.0,3.8,89,0.00,,,0.05,0.027,,2013-10-19 12:11:00,
2013-10-19 07:21:00,33.7,-99.9,29.76,NW,320,5.0,7.1,90,0.00,,,0.05,0.037,,2013-10-19 12:21:00,
2013-10-19 07:31:00,33.7,-99.9,29.76,WNW,302,4.0,5.4,89,0.00,,,0.05,0.173,,2013-10-19 12:31:00,
2013-10-19 07:41:00,33.6,-99.9,29.76,NW,318,4.0,5.4,88,0.00,,,0.05,0.532,,2013-10-19 12:41:00,
2013-10-19 07:51:00,33.2,-99.9,29.76,WSW,239,4.0,7.1,88,0.00,,,0.05,2.145,,2013-10-19 12:51:00,
2013-10-19 08:01:00,33.1,-99.9,29.77,West,266,3.0,5.4,88,0.00,,,0.05,4.452,,2013-10-19 13:01:00,
2013-10-19 08:11:00,32.9,-99.9,29.77,WNW,302,6.0,8.8,86,0.00,,,0.05,7.372,,2013-10-19 13:11:00,
2013-10-19 08:21:00,32.8,-99.9,29.78,WNW,295,5.0,7.1,86,0.00,,,0.05,16.62,,2013-10-19 13:21:00,
2013-10-19 08:31:00,32.7,-99.9,29.78,North,3,6.0,12.1,83,0.00,,,0.05,23.24,,2013-10-19 13:31:00,
2013-10-19 08:41:00,32.8,-99.9,29.78,WNW,287,5.0,8.8,83,0.00,,,0.05,34.41,,2013-10-19 13:41:00,
2013-10-19 08:51:00,33.0,-99.9,29.78,NW,320,6.0,8.8,82,0.00,,,0.05,43.5,,2013-10-19 13:51:00,
2013-10-19 09:01:00,33.3,-99.9,29.78,NNW,344,4.0,7.1,81,0.00,,,0.05,189.7,,2013-10-19 14:01:00,
2013-10-19 09:11:00,34.4,-99.9,29.78,WNW,282,6.0,8.8,78,0.00,,,0.05,223.6,,2013-10-19 14:11:00,
2013-10-19 09:21:00,34.5,-99.9,29.78,West,276,5.0,8.8,79,0.00,,,0.05,250.4,,2013-10-19 14:21:00,
2013-10-19 09:31:00,34.3,-99.9,29.78,North,0,7.0,10.5,78,0.00,,,0.05,275.5,,2013-10-19 14:31:00,
2013-10-19 09:41:00,34.5,-99.9,29.78,NNW,328,10.0,13.8,77,0.00,,,0.05,300.7,,2013-10-19 14:41:00,
2013-10-19 09:51:00,35.2,-99.9,29.79,WNW,300,6.0,10.5,76,0.00,,,0.05,326.4,,2013-10-19 14:51:00,
2013-10-19 10:01:00,35.7,-99.9,29.79,WNW,302,7.0,10.5,77,0.00,,,0.05,353.7,,2013-10-19 15:01:00,
2013-10-19 10:11:00,35.7,-99.9,29.79,WNW,290,7.0,13.8,76,0.00,,,0.05,376.3,,2013-10-19 15:11:00,
2013-10-19 10:21:00,36.3,-99.9,29.79,NNW,333,8.0,13.8,75,0.00,,,0.05,397.4,,2013-10-19 15:21:00,
2013-10-19 10:31:00,36.9,-99.9,29.79,WNW,283,7.0,10.5,76,0.00,,,0.05,406.4,,2013-10-19 15:31:00,
2013-10-19 10:41:00,37.1,-99.9,29.80,NW,325,6.0,10.5,75,0.00,,,0.05,438,,2013-10-19 15:41:00,
2013-10-19 10:51:00,37.0,-99.9,29.80,West,276,11.0,15.5,73,0.00,,,0.05,456,,2013-10-19 15:51:00,
2013-10-19 11:01:00,37.1,-99.9,29.80,West,277,12.0,15.5,72,0.00,,,0.05,475.9,,2013-10-19 16:01:00,
2013-10-19 11:11:00,38.0,-99.9,29.80,NW,305,7.0,12.1,71,0.00,,,0.05,490.3,,2013-10-19 16:11:00,
2013-10-19 11:21:00,38.2,-99.9,29.80,WNW,299,9.0,13.8,70,0.00,,,0.05,471,,2013-10-19 16:21:00,
2013-10-19 11:31:00,38.8,-99.9,29.80,North,349,9.0,13.8,69,0.00,,,0.05,523.4,,2013-10-19 16:31:00,
2013-10-19 11:41:00,39.4,-99.9,29.80,NW,304,4.0,7.1,66,0.00,,,0.05,530.4,,2013-10-19 16:41:00,
2013-10-19 11:51:00,39.0,-99.9,29.80,WNW,286,12.0,18.9,64,0.00,,,0.05,541.6,,2013-10-19 16:51:00,
2013-10-19 12:01:00,39.4,-99.9,29.80,NNW,331,9.0,13.8,66,0.00,,,0.05,550.8,,2013-10-19 17:01:00,
2013-10-19 12:11:00,39.5,-99.9,29.80,NW,308,8.0,13.8,64,0.00,,,0.05,549.6,,2013-10-19 17:11:00,
2013-10-19 12:21:00,40.3,-99.9,29.80,WNW,290,9.0,13.8,64,0.00,,,0.05,548.2,,2013-10-19 17:21:00,
2013-10-19 12:31:00,40.6,-99.9,29.80,WNW,296,8.0,12.1,64,0.00,,,0.05,563.2,,2013-10-19 17:31:00,
2013-10-19 12:41:00,40.8,-99.9,29.80,WNW,297,8.0,13.8,63,0.00,,,0.05,556.3,,2013-10-19 17:41:00,
2013-10-19 12:51:00,40.6,-99.9,29.80,NNW,327,7.0,13.8,63,0.00,,,0.05,562.4,,2013-10-19 17:51:00,
2013-10-19 13:01:00,41.7,-99.9,29.80,WNW,291,10.0,15.5,60,0.00,,,0.05,521.8,,2013-10-19 18:01:00,
2013-10-19 13:11:00,41.7,-99.9,29.80,NW,309,7.0,10.5,61,0.00,,,0.05,586.3,,2013-10-19 18:11:00,
2013-10-19 13:21:00,41.1,-99.9,29.80,West,277,9.0,13.8,64,0.00,,,0.05,449.3,,2013-10-19 18:21:00,
2013-10-19 13:31:00,41.3,-99.9,29.80,WNW,289,9.0,12.1,62,0.00,,,0.05,560.2,,2013-10-19 18:31:00,
2013-10-19 13:41:00,41.6,-99.9,29.79,WNW,285,7.0,12.1,61,0.00,,,0.05,125.8,,2013-10-19 18:41:00,
2013-10-19 13:51:00,42.1,-99.9,29.79,NNE,18,4.0,8.8,61,0.00,,,0.05,550.2,,2013-10-19 18:51:00,
2013-10-19 14:01:00,43.7,-99.9,29.78,NNW,329,6.0,8.8,60,0.00,,,0.05,549,,2013-10-19 19:01:00,
2013-10-19 14:11:00,43.3,-99.9,29.78,NNW,346,4.0,5.4,63,0.00,,,0.05,608.5,,2013-10-19 19:11:00,
2013-10-19 14:21:00,43.6,-99.9,29.78,NNW,330,4.0,8.8,59,0.00,,,0.05,563.7,,2013-10-19 19:21:00,
2013-10-19 14:31:00,44.1,-99.9,29.78,West,262,4.0,7.1,55,0.00,,,0.05,583,,2013-10-19 19:31:00,
2013-10-19 14:41:00,42.7,-99.9,29.78,WNW,302,10.0,13.8,54,0.00,,,0.05,123.9,,2013-10-19 19:41:00,
2013-10-19 14:51:00,42.5,-99.9,29.78,West,264,6.0,8.8,57,0.00,,,0.05,150.7,,2013-10-19 19:51:00,
2013-10-19 15:01:00,43.9,-99.9,29.77,WNW,283,6.0,8.8,54,0.00,,,0.05,146.9,,2013-10-19 20:01:00,
2013-10-19 15:11:00,43.7,-99.9,29.77,WNW,291,6.0,8.8,53,0.00,,,0.05,507.4,,2013-10-19 20:11:00,
2013-10-19 15:21:00,42.9,-99.9,29.77,West,277,6.0,10.5,52,0.00,,,0.05,106.1,,2013-10-19 20:21:00,
2013-10-19 15:31:00,43.8,-99.9,29.77,WSW,246,5.0,7.1,52,0.00,,,0.05,344,,2013-10-19 20:31:00,
2013-10-19 15:41:00,44.4,-99.9,29.77,NW,316,4.0,5.4,52,0.00,,,0.05,321.2,,2013-10-19 20:41:00,
2013-10-19 15:51:00,44.3,-99.9,29.77,WSW,254,7.0,8.8,50,0.00,,,0.05,357.9,,2013-10-19 20:51:00,
2013-10-19 16:01:00,44.7,-99.9,29.77,WNW,289,5.0,10.5,50,0.00,,,0.05,342.7,,2013-10-19 21:01:00,
2013-10-19 16:11:00,44.5,-99.9,29.77,NNW,343,5.0,8.8,49,0.00,,,0.05,323.3,,2013-10-19 21:11:00,
2013-10-19 16:21:00,44.7,-99.9,29.77,SW,235,8.0,10.5,50,0.00,,,0.05,224.6,,2013-10-19 21:21:00,
2013-10-19 16:31:00,43.8,-99.9,29.77,West,261,6.0,8.8,50,0.00,,,0.05,206.3,,2013-10-19 21:31:00,
2013-10-19 16:41:00,44.5,-99.9,29.77,NW,305,3.0,5.4,48,0.00,,,0.05,183.1,,2013-10-19 21:41:00,
2013-10-19 16:51:00,44.8,-99.9,29.77,WNW,298,4.0,5.4,48,0.00,,,0.05,160.4,,2013-10-19 21:51:00,
2013-10-19 17:01:00,44.2,-99.9,29.77,SW,232,4.0,5.4,51,0.00,,,0.05,136.6,,2013-10-19 22:01:00,
2013-10-19 17:11:00,44.2,-99.9,29.77,West,274,2.0,5.4,48,0.00,,,0.05,93,,2013-10-19 22:11:00,
2013-10-19 17:21:00,43.7,-99.9,29.77,NNW,334,0.0,2.1,50,0.00,,,0.05,86.9,,2013-10-19 22:21:00,
2013-10-19 17:31:00,43.4,-99.9,29.77,West,261,4.0,5.4,50,0.00,,,0.05,62.07,,2013-10-19 22:31:00,
2013-10-19 17:41:00,43.2,-99.9,29.77,West,265,3.0,3.8,50,0.00,,,0.05,57.43,,2013-10-19 22:41:00,
2013-10-19 17:51:00,42.1,-99.9,29.77,SW,223,2.0,3.8,54,0.00,,,0.05,40.55,,2013-10-19 22:51:00,
2013-10-19 18:01:00,42.2,-99.9,29.76,WSW,243,1.0,3.8,53,0.00,,,0.05,27.76,,2013-10-19 23:01:00,
2013-10-19 18:11:00,41.5,-99.9,29.76,WSW,252,0.0,0.0,55,0.00,,,0.05,18.19,,2013-10-19 23:11:00,
2013-10-19 18:21:00,40.6,-99.9,29.76,SW,215,0.0,0.0,64,0.00,,,0.05,10.02,,2013-10-19 23:21:00,
2013-10-19 18:31:00,40.1,-99.9,29.76,South,190,0.0,0.0,64,0.00,,,0.05,5.52,,2013-10-19 23:31:00,
2013-10-19 18:41:00,39.7,-99.9,29.76,South,190,0.0,0.0,66,0.00,,,0.05,1.595,,2013-10-19 23:41:00,
2013-10-19 18:51:00,40.0,-99.9,29.76,ESE,105,0.0,0.0,69,0.00,,,0.05,0.518,,2013-10-19 23:51:00,
2013-10-19 19:01:00,39.5,-99.9,29.76,ESE,105,0.0,0.0,67,0.00,,,0.05,0.041,,2013-10-20 00:01:00,
2013-10-19 19:11:00,39.5,-99.9,29.76,SW,221,0.0,0.0,71,0.00,,,0.05,0,,2013-10-20 00:11:00,
2013-10-19 19:21:00,39.3,-99.9,29.76,SE,133,0.0,0.0,71,0.00,,,0.05,0,,2013-10-20 00:21:00,
2013-10-19 19:31:00,39.5,-99.9,29.77,SE,146,0.0,0.0,73,0.00,,,0.05,0,,2013-10-20 00:31:00,
2013-10-19 19:41:00,39.7,-99.9,29.76,SSW,207,0.0,0.0,70,0.00,,,0.05,0,,2013-10-20 00:41:00,
2013-10-19 19:51:00,39.9,-99.9,29.76,WSW,257,0.0,0.0,71,0.00,,,0.05,0,,2013-10-20 00:51:00,
2013-10-19 20:01:00,40.3,-99.9,29.76,SSE,157,2.0,3.8,66,0.00,,,0.05,0,,2013-10-20 01:01:00,
2013-10-19 20:11:00,40.3,-99.9,29.76,SSW,202,0.0,0.0,72,0.00,,,0.05,0,,2013-10-20 01:11:00,
2013-10-19 20:21:00,40.8,-99.9,29.76,WNW,288,4.0,7.1,60,0.00,,,0.05,0.003,,2013-10-20 01:21:00,
2013-10-19 20:31:00,40.8,-99.9,29.76,WSW,238,0.0,0.0,61,0.00,,,0.05,0,,2013-10-20 01:31:00,
2013-10-19 20:41:00,40.9,-99.9,29.76,SW,233,2.0,3.8,62,0.00,,,0.05,0,,2013-10-20 01:41:00,
2013-10-19 20:51:00,40.5,-99.9,29.75,SW,232,4.0,5.4,62,0.00,,,0.05,0,,2013-10-20 01:51:00,
2013-10-19 21:01:00,40.3,-99.9,29.75,WSW,239,6.0,7.1,64,0.00,,,0.05,0,,2013-10-20 02:01:00,
2013-10-19 21:11:00,39.8,-99.9,29.75,SSW,202,1.0,3.8,68,0.00,,,0.05,0,,2013-10-20 02:11:00,
2013-10-19 21:21:00,39.3,-99.9,29.74,WSW,248,2.0,3.8,70,0.00,,,0.05,0,,2013-10-20 02:21:00,
2013-10-19 21:31:00,39.4,-99.9,29.74,SSE,158,1.0,3.8,71,0.00,,,0.05,0,,2013-10-20 02:31:00,
2013-10-19 21:41:00,39.1,-99.9,29.74,SW,222,1.0,2.1,74,0.00,,,0.05,0,,2013-10-20 02:41:00,
2013-10-19 21:51:00,38.5,-99.9,29.74,SW,215,1.0,2.1,78,0.00,,,0.05,0,,2013-10-20 02:51:00,
2013-10-19 22:01:00,38.2,-99.9,29.74,WSW,247,2.0,3.8,80,0.00,,,0.05,0,,2013-10-20 03:01:00,
2013-10-19 22:11:00,38.1,-99.9,29.73,SW,227,0.0,0.0,80,0.00,,,0.05,0.003,,2013-10-20 03:11:00,
2013-10-19 22:21:00,38.0,-99.9,29.72,SSE,166,2.0,3.8,80,0.00,,,0.05,0,,2013-10-20 03:21:00,
2013-10-19 22:31:00,37.9,-99.9,29.72,WSW,238,0.0,2.1,82,0.00,,,0.05,0,,2013-10-20 03:31:00,
2013-10-19 22:41:00,37.9,-99.9,29.72,SSE,166,1.0,2.1,83,0.00,,,0.05,0.003,,2013-10-20 03:41:00,
2013-10-19 22:51:00,37.8,-99.9,29.71,SE,139,0.0,2.1,83,0.00,,,0.05,0,,2013-10-20 03:51:00,
2013-10-19 23:01:00,37.7,-99.9,29.71,ESE,106,2.0,3.8,83,0.00,,,0.05,0,,2013-10-20 04:01:00,
2013-10-19 23:11:00,37.5,-99.9,29.70,SE,139,1.0,3.8,84,0.00,,,0.05,0,,2013-10-20 04:11:00,
2013-10-19 23:21:00,37.4,-99.9,29.70,SSE,148,1.0,3.8,85,0.00,,,0.05,0.007,,2013-10-20 04:21:00,
2013-10-19 23:31:00,37.4,-99.9,29.70,East,98,0.0,2.1,85,0.00,,,0.05,0,,2013-10-20 04:31:00,
2013-10-19 23:41:00,37.5,-99.9,29.69,SE,126,0.0,2.1,86,0.00,,,0.05,0,,2013-10-20 04:41:00,
2013-10-19 23:51:00,37.3,-99.9,29.69,SE,140,1.0,3.8,87,0.00,,,0.05,0,,2013-10-20 04:51:00,